Atmospheric History
12/06/2017 18:43  to  12/7/2017 18:43
Change End Date:
To complete the export process:
1) Select all of the data below
2) Copy the data to the clipboard
3) Open a word processor such as Notepad
4) Paste the data into the word processor
5) Save the file

Date/Time (MST), AirTemp, RH, Dewpoint ,AvgWindSpeed, GustWindSpeed, WindDirection, PrecipType, PrecipIntensity, PrecipAccumulation, PrecipRate
12/07/2017 18:38, 16, 93, 14 ,1, 2, SE, None, None, ,  
12/07/2017 18:31, 16, 92, 14 ,1, 2, SE, None, None, ,  
12/07/2017 18:28, 16, 92, 14 ,1, 2, SE, None, None, ,  
12/07/2017 18:18, 17, 92, 15 ,1, 2, SE, None, None, ,  
12/07/2017 18:16, 17, 92, 15 ,1, 2, SE, None, None, ,  
12/07/2017 18:08, 17, 91, 15 ,2, 2, E, None, None, ,  
12/07/2017 18:01, 18, 91, 16 ,1, 1, E, None, None, ,  
12/07/2017 17:58, 18, 91, 16 ,1, 1, E, None, None, ,  
12/07/2017 17:48, 18, 90, 16 ,1, 2, SE, None, None, ,  
12/07/2017 17:46, 19, 89, 16 ,1, 2, SE, None, None, ,  
12/07/2017 17:38, 19, 89, 17 ,1, 1, E, None, None, ,  
12/07/2017 17:31, 20, 89, 17 ,0, 0, E, None, None, ,  
12/07/2017 17:28, 20, 88, 17 ,0, 0, E, None, None, ,  
12/07/2017 17:18, 21, 86, 17 ,0, 0, E, None, None, ,  
12/07/2017 17:16, 21, 86, 18 ,0, 1, E, None, None, ,  
12/07/2017 17:08, 22, 85, 18 ,0, 2, E, None, None, ,  
12/07/2017 17:01, 22, 84, 19 ,1, 2, NE, None, None, ,  
12/07/2017 16:58, 23, 84, 19 ,1, 2, E, None, None, ,  
12/07/2017 16:48, 23, 83, 19 ,1, 5, E, None, None, ,  
12/07/2017 16:46, 23, 83, 19 ,2, 5, E, None, None, ,  
12/07/2017 16:38, 24, 82, 19 ,2, 4, E, None, None, ,  
12/07/2017 16:31, 24, 81, 19 ,1, 6, E, None, None, ,  
12/07/2017 16:28, 24, 81, 19 ,1, 6, E, None, None, ,  
12/07/2017 16:18, 25, 78, 19 ,1, 4, SE, None, None, ,  
12/07/2017 16:16, 25, 78, 19 ,1, 5, E, None, None, ,  
12/07/2017 16:08, 25, 77, 19 ,0, 4, E, None, None, ,  
12/07/2017 16:01, 26, 75, 19 ,1, 4, E, None, None, ,  
12/07/2017 15:58, 26, 75, 19 ,3, 4, NE, None, None, ,  
12/07/2017 15:48, 26, 75, 19 ,2, 4, NE, None, None, ,  
12/07/2017 15:46, 26, 74, 19 ,1, 4, NE, None, None, ,  
12/07/2017 15:37, 26, 73, 19 ,2, 6, NE, None, None, ,  
12/07/2017 15:31, 26, 73, 19 ,1, 3, SE, None, None, ,  
12/07/2017 15:27, 26, 72, 19 ,1, 4, SE, None, None, ,  
12/07/2017 15:17, 27, 70, 19 ,1, 6, SE, None, None, ,  
12/07/2017 15:16, 27, 70, 19 ,2, 6, SE, None, None, ,  
12/07/2017 15:07, 28, 69, 19 ,2, 6, SE, None, None, ,  
12/07/2017 15:01, 28, 70, 19 ,1, 5, E, None, None, ,  
12/07/2017 14:57, 28, 70, 19 ,3, 6, E, None, None, ,  
12/07/2017 14:47, 28, 67, 19 ,4, 6, NE, None, None, ,  
12/07/2017 14:46, 28, 67, 19 ,1, 6, E, None, None, ,  
12/07/2017 14:37, 28, 67, 19 ,4, 7, E, None, None, ,  
12/07/2017 14:31, 28, 66, 19 ,4, 6, NE, None, None, ,  
12/07/2017 14:27, 29, 66, 19 ,4, 6, E, None, None, ,  
12/07/2017 14:17, 28, 67, 19 ,1, 5, SE, None, None, ,  
12/07/2017 14:16, 29, 66, 19 ,1, 7, E, None, None, ,  
12/07/2017 14:07, 29, 65, 19 ,4, 7, E, None, None, ,  
12/07/2017 14:01, 29, 65, 19 ,2, 5, E, None, None, ,  
12/07/2017 13:57, 30, 65, 20 ,2, 6, NE, None, None, ,  
12/07/2017 13:47, 29, 65, 19 ,2, 4, E, None, None, ,  
12/07/2017 13:46, 29, 65, 19 ,1, 3, E, None, None, ,  
12/07/2017 13:37, 28, 70, 19 ,0, 3, E, None, None, ,  
12/07/2017 13:31, 27, 68, 18 ,1, 4, N, None, None, ,  
12/07/2017 13:27, 28, 67, 19 ,2, 4, E, None, None, ,  
12/07/2017 13:17, 27, 70, 19 ,1, 6, SE, None, None, ,  
12/07/2017 13:16, 26, 70, 18 ,2, 6, SE, None, None, ,  
12/07/2017 13:07, 27, 70, 19 ,2, 6, NE, None, None, ,  
12/07/2017 13:01, 27, 70, 18 ,4, 6, NE, None, None, ,  
12/07/2017 12:57, 27, 72, 19 ,2, 6, E, None, None, ,  
12/07/2017 12:47, 26, 72, 19 ,4, 6, NE, None, None, ,  
12/07/2017 12:46, 26, 74, 19 ,4, 6, NE, None, None, ,  
12/07/2017 12:37, 25, 75, 18 ,4, 6, E, None, None, ,  
12/07/2017 12:31, 25, 76, 19 ,2, 6, E, None, None, ,  
12/07/2017 12:26, 25, 77, 19 ,2, 6, NE, None, None, ,  
12/07/2017 12:16, 24, 79, 18 ,4, 7, NE, None, None, ,  
12/07/2017 12:16, 24, 79, 18 ,4, 7, NE, None, None, ,  
12/07/2017 12:06, 24, 79, 19 ,4, 6, NE, None, None, ,  
12/07/2017 12:01, 24, 79, 18 ,4, 7, E, None, None, ,  
12/07/2017 11:56, 24, 79, 19 ,2, 7, SE, None, None, ,  
12/07/2017 11:46, 24, 82, 19 ,2, 5, E, None, None, ,  
12/07/2017 11:46, 24, 82, 19 ,1, 4, SE, None, None, ,  
12/07/2017 11:36, 24, 83, 19 ,2, 4, SE, None, None, ,  
12/07/2017 11:31, 22, 85, 18 ,1, 5, E, None, None, ,  
12/07/2017 11:26, 22, 84, 18 ,4, 5, E, None, None, ,  
12/07/2017 11:16, 23, 83, 18 ,0, 4, E, None, None, ,  
12/07/2017 11:16, 22, 84, 19 ,1, 4, E, None, None, ,  
12/07/2017 11:06, 21, 83, 17 ,1, 4, E, None, None, ,  
12/07/2017 11:01, 21, 84, 17 ,2, 3, E, None, None, ,  
12/07/2017 10:56, 21, 81, 16 ,1, 3, E, None, None, ,  
12/07/2017 10:46, 22, 81, 17 ,0, 4, SE, None, None, ,  
12/07/2017 10:46, 22, 81, 17 ,0, 4, SE, None, None, ,  
12/07/2017 10:36, 21, 82, 16 ,2, 2, NE, None, None, ,  
12/07/2017 10:31, 20, 85, 17 ,1, 2, SE, None, None, ,  
12/07/2017 10:26, 19, 87, 16 ,0, 2, SE, None, None, ,  
12/07/2017 10:16, 18, 88, 15 ,0, 1, S, None, None, ,  
12/07/2017 10:16, 18, 88, 15 ,0, 1, S, None, None, ,  
12/07/2017 10:06, 16, 92, 14 ,1, 2, SE, None, None, ,  
12/07/2017 10:01, 15, 91, 13 ,0, 3, SE, None, None, ,  
12/07/2017 09:56, 15, 91, 13 ,0, 3, SE, None, None, ,  
12/07/2017 09:46, 14, 91, 12 ,1, 3, SE, None, None, ,  
12/07/2017 09:46, 14, 91, 12 ,1, 3, SE, None, None, ,  
12/07/2017 09:35, 14, 93, 12 ,0, 1, S, None, None, ,  
12/07/2017 09:31, 13, 93, 12 ,0, 1, S, None, None, ,  
12/07/2017 09:25, 14, 93, 12 ,0, 1, E, None, None, ,  
12/07/2017 09:16, 14, 92, 12 ,1, 2, SE, None, None, ,  
12/07/2017 09:15, 14, 92, 12 ,1, 2, SE, None, None, ,  
12/07/2017 09:05, 13, 91, 11 ,0, 1, E, None, None, ,  
12/07/2017 09:01, 13, 91, 11 ,1, 1, E, None, None, ,  
12/07/2017 08:55, 13, 91, 11 ,0, 2, SE, None, None, ,  
12/07/2017 08:46, 12, 92, 10 ,2, 4, SE, None, None, ,  
12/07/2017 08:45, 12, 92, 10 ,2, 4, SE, None, None, ,  
12/07/2017 08:35, 11, 89, 8 ,1, 2, SE, None, None, ,  
12/07/2017 08:31, 10, 89, 8 ,1, 1, SE, None, None, ,  
12/07/2017 08:25, 10, 89, 8 ,0, 1, NE, None, None, ,  
12/07/2017 08:16, 10, 88, 7 ,0, 0, NW, None, None, ,  
12/07/2017 08:15, 10, 88, 7 ,0, 0, NW, None, None, ,  
12/07/2017 08:05, 9, 88, 6 ,1, 1, NW, None, None, ,  
12/07/2017 08:01, 10, 88, 7 ,0, 1, NW, None, None, ,  
12/07/2017 07:55, 9, 90, 7 ,0, 1, NW, None, None, ,  
12/07/2017 07:46, 8, 89, 5 ,1, 1, E, None, None, ,  
12/07/2017 07:45, 8, 89, 5 ,1, 1, E, None, None, ,  
12/07/2017 07:35, 8, 88, 5 ,0, 1, E, None, None, ,  
12/07/2017 07:31, 8, 88, 5 ,1, 2, E, None, None, ,  
12/07/2017 07:25, 8, 88, 5 ,1, 1, E, None, None, ,  
12/07/2017 07:16, 8, 88, 5 ,0, 1, E, None, None, ,  
12/07/2017 07:15, 8, 88, 5 ,0, 1, E, None, None, ,  
12/07/2017 07:05, 8, 88, 5 ,0, 1, E, None, None, ,  
12/07/2017 07:01, 8, 88, 5 ,0, 1, E, None, None, ,  
12/07/2017 06:55, 8, 88, 6 ,0, 1, E, None, None, ,  
12/07/2017 06:46, 8, 88, 6 ,1, 1, E, None, None, ,  
12/07/2017 06:45, 8, 88, 6 ,1, 1, E, None, None, ,  
12/07/2017 06:35, 9, 88, 6 ,0, 0, E, None, None, ,  
12/07/2017 06:31, 9, 89, 6 ,0, 0, E, None, None, ,  
12/07/2017 06:24, 9, 89, 6 ,0, 0, E, None, None, ,  
12/07/2017 06:16, 9, 89, 6 ,0, 1, E, None, None, ,  
12/07/2017 06:14, 9, 89, 6 ,1, 1, E, None, None, ,  
12/07/2017 06:04, 9, 89, 6 ,0, 1, E, None, None, ,  
12/07/2017 06:01, 9, 89, 6 ,1, 1, E, None, None, ,  
12/07/2017 05:54, 9, 88, 6 ,0, 0, E, None, None, ,  
12/07/2017 05:46, 9, 88, 6 ,0, 0, E, None, None, ,  
12/07/2017 05:44, 9, 88, 6 ,0, 0, E, None, None, ,  
12/07/2017 05:34, 9, 89, 6 ,0, 0, E, None, None, ,  
12/07/2017 05:31, 9, 88, 6 ,0, 0, E, None, None, ,  
12/07/2017 05:24, 9, 89, 6 ,0, 0, E, None, None, ,  
12/07/2017 05:16, 9, 88, 6 ,0, 0, E, None, None, ,  
12/07/2017 05:14, 9, 88, 6 ,0, 0, E, None, None, ,  
12/07/2017 05:04, 9, 88, 6 ,0, 0, E, None, None, ,  
12/07/2017 05:01, 9, 89, 7 ,0, 0, E, None, None, ,  
12/07/2017 04:54, 10, 89, 7 ,0, 0, E, None, None, ,  
12/07/2017 04:46, 10, 89, 7 ,0, 0, E, None, None, ,  
12/07/2017 04:44, 10, 89, 7 ,0, 0, E, None, None, ,  
12/07/2017 04:34, 10, 89, 7 ,0, 1, E, None, None, ,  
12/07/2017 04:31, 10, 89, 7 ,0, 1, E, None, None, ,  
12/07/2017 04:24, 10, 89, 8 ,0, 0, E, None, None, ,  
12/07/2017 04:16, 10, 89, 8 ,0, 0, E, None, None, ,  
12/07/2017 04:14, 10, 89, 8 ,0, 0, E, None, None, ,  
12/07/2017 04:04, 10, 89, 8 ,0, 1, E, None, None, ,  
12/07/2017 04:01, 10, 89, 7 ,0, 1, E, None, None, ,  
12/07/2017 03:54, 10, 89, 8 ,1, 2, E, None, None, ,  
12/07/2017 03:46, 10, 89, 8 ,0, 1, SE, None, None, ,  
12/07/2017 03:44, 10, 90, 8 ,0, 0, SE, None, None, ,  
12/07/2017 03:34, 10, 90, 8 ,0, 1, SE, None, None, ,  
12/07/2017 03:31, 10, 89, 8 ,1, 1, SE, None, None, ,  
12/07/2017 03:24, 10, 90, 8 ,0, 1, SE, None, None, ,  
12/07/2017 03:16, 10, 89, 8 ,0, 1, SE, None, None, ,  
12/07/2017 03:14, 10, 89, 8 ,0, 0, SE, None, None, ,  
12/07/2017 03:04, 10, 89, 8 ,0, 0, SE, None, None, ,  
12/07/2017 03:01, 10, 89, 8 ,0, 0, SE, None, None, ,  
12/07/2017 02:54, 10, 89, 8 ,0, 0, SE, None, None, ,  
12/07/2017 02:46, 11, 90, 8 ,0, 0, SE, None, None, ,  
12/07/2017 02:43, 10, 90, 8 ,0, 0, SE, None, None, ,  
12/07/2017 02:33, 11, 90, 8 ,0, 1, SE, None, None, ,  
12/07/2017 02:31, 11, 90, 8 ,0, 1, SE, None, None, ,  
12/07/2017 02:23, 11, 90, 8 ,0, 0, SE, None, None, ,  
12/07/2017 02:16, 11, 90, 8 ,0, 1, SE, None, None, ,  
12/07/2017 02:13, 11, 90, 8 ,0, 1, SE, None, None, ,  
12/07/2017 02:03, 11, 90, 8 ,0, 1, SE, None, None, ,  
12/07/2017 02:01, 11, 90, 8 ,0, 1, SE, None, None, ,  
12/07/2017 01:53, 11, 90, 8 ,0, 0, SE, None, None, ,  
12/07/2017 01:46, 11, 90, 8 ,0, 1, SE, None, None, ,  
12/07/2017 01:43, 11, 90, 8 ,0, 1, SE, None, None, ,  
12/07/2017 01:33, 11, 90, 8 ,0, 0, SE, None, None, ,  
12/07/2017 01:31, 11, 90, 8 ,0, 0, SE, None, None, ,  
12/07/2017 01:23, 11, 90, 8 ,0, 0, SE, None, None, ,  
12/07/2017 01:16, 11, 90, 9 ,0, 0, SE, None, None, ,  
12/07/2017 01:13, 11, 90, 8 ,0, 0, SE, None, None, ,  
12/07/2017 01:03, 11, 90, 9 ,0, 1, SE, None, None, ,  
12/07/2017 01:01, 11, 91, 9 ,0, 1, SE, None, None, ,  
12/07/2017 00:53, 11, 91, 9 ,0, 1, SE, None, None, ,  
12/07/2017 00:46, 11, 91, 9 ,1, 1, SE, None, None, ,  
12/07/2017 00:43, 11, 91, 9 ,1, 1, SE, None, None, ,  
12/07/2017 00:33, 11, 91, 9 ,0, 1, SE, None, None, ,  
12/07/2017 00:31, 11, 91, 9 ,1, 1, SE, None, None, ,  
12/07/2017 00:23, 12, 91, 10 ,0, 0, SE, None, None, ,  
12/07/2017 00:16, 12, 92, 10 ,0, 0, SE, None, None, ,  
12/07/2017 00:13, 12, 91, 10 ,0, 0, SE, None, None, ,  
12/07/2017 00:03, 12, 92, 10 ,0, 1, SE, None, None, ,  
12/07/2017 00:01, 12, 91, 10 ,1, 1, SE, None, None, ,  
12/06/2017 23:53, 13, 91, 10 ,0, 0, SE, None, None, ,  
12/06/2017 23:46, 13, 92, 11 ,0, 1, SE, None, None, ,  
12/06/2017 23:43, 13, 92, 11 ,0, 1, SE, None, None, ,  
12/06/2017 23:33, 13, 91, 11 ,1, 1, SE, None, None, ,  
12/06/2017 23:31, 13, 92, 11 ,0, 1, SE, None, None, ,  
12/06/2017 23:23, 13, 92, 11 ,0, 1, SE, None, None, ,  
12/06/2017 23:16, 13, 92, 11 ,0, 1, SE, None, None, ,  
12/06/2017 23:13, 13, 92, 11 ,0, 0, SE, None, None, ,  
12/06/2017 23:03, 13, 92, 11 ,1, 1, SE, None, None, ,  
12/06/2017 23:01, 13, 92, 11 ,1, 1, SE, None, None, ,  
12/06/2017 22:52, 13, 93, 11 ,1, 1, SE, None, None, ,  
12/06/2017 22:46, 13, 93, 11 ,0, 1, SE, None, None, ,  
12/06/2017 22:42, 13, 93, 11 ,1, 1, SE, None, None, ,  
12/06/2017 22:32, 13, 94, 11 ,0, 0, SE, None, None, ,  
12/06/2017 22:31, 13, 94, 11 ,0, 1, SE, None, None, ,  
12/06/2017 22:22, 13, 93, 11 ,1, 1, SE, None, None, ,  
12/06/2017 22:16, 13, 93, 12 ,0, 0, SE, None, None, ,  
12/06/2017 22:12, 13, 94, 12 ,0, 0, SE, None, None, ,  
12/06/2017 22:02, 13, 94, 12 ,0, 0, SE, None, None, ,  
12/06/2017 22:01, 13, 94, 12 ,0, 1, SE, None, None, ,  
12/06/2017 21:52, 14, 94, 12 ,0, 1, SE, None, None, ,  
12/06/2017 21:46, 14, 94, 12 ,0, 0, SE, None, None, ,  
12/06/2017 21:42, 14, 94, 12 ,0, 0, SE, None, None, ,  
12/06/2017 21:32, 14, 93, 12 ,0, 1, SE, None, None, ,  
12/06/2017 21:31, 14, 94, 13 ,0, 0, SE, None, None, ,  
12/06/2017 21:22, 15, 94, 13 ,0, 0, SE, None, None, ,  
12/06/2017 21:16, 15, 94, 13 ,0, 0, SE, None, None, ,  
12/06/2017 21:12, 15, 94, 13 ,0, 0, SE, None, None, ,  
12/06/2017 21:02, 15, 93, 13 ,0, 1, SE, None, None, ,  
12/06/2017 21:01, 15, 93, 13 ,0, 1, SE, None, None, ,  
12/06/2017 20:52, 15, 93, 13 ,1, 1, SE, None, None, ,  
12/06/2017 20:46, 15, 93, 14 ,0, 0, SE, None, None, ,  
12/06/2017 20:42, 15, 93, 14 ,0, 0, SE, None, None, ,  
12/06/2017 20:32, 15, 93, 14 ,0, 1, SE, None, None, ,  
12/06/2017 20:31, 15, 93, 14 ,1, 1, SE, None, None, ,  
12/06/2017 20:22, 16, 93, 14 ,0, 1, SE, None, None, ,  
12/06/2017 20:16, 16, 93, 14 ,0, 1, SE, None, None, ,  
12/06/2017 20:12, 16, 93, 14 ,0, 0, SE, None, None, ,  
12/06/2017 20:02, 16, 92, 14 ,0, 0, SE, None, None, ,  
12/06/2017 20:01, 17, 92, 15 ,0, 0, SE, None, None, ,  
12/06/2017 19:52, 17, 91, 15 ,0, 1, SE, None, None, ,  
12/06/2017 19:46, 17, 91, 15 ,0, 1, SE, None, None, ,  
12/06/2017 19:42, 17, 91, 15 ,0, 0, SE, None, None, ,  
12/06/2017 19:32, 17, 91, 15 ,0, 0, SW, None, None, ,  
12/06/2017 19:31, 18, 91, 15 ,0, 0, SW, None, None, ,  
12/06/2017 19:22, 18, 90, 16 ,0, 0, SW, None, None, ,  
12/06/2017 19:16, 18, 90, 16 ,0, 0, SW, None, None, ,  
12/06/2017 19:12, 19, 89, 16 ,0, 0, SW, None, None, ,  
12/06/2017 19:02, 19, 87, 16 ,0, 0, SW, None, None, ,  
12/06/2017 19:01, 19, 87, 16 ,0, 0, SW, None, None, ,  
12/06/2017 18:52, 19, 86, 16 ,0, 0, SW, None, None, ,  
12/06/2017 18:46, 20, 85, 16 ,0, 0, SW, None, None, ,  
Change End Date:

Copyright © 1998-2015 Vaisala, Inc.
All Rights Reserved
Send comments about the data to:
SCAN Web ® is a registered trademark of Vaisala, Inc.
SCAN Web Version 6.0